Weather in Bhilwara

India     25°21′06″N   74°37′55″E
temp.,
°C
wind,
m/s
gust,
m/s
humid.,
%
clouds,
%
prec.,
mm/h
press.,
hPa
HPBL,
m
13 april, tue
tue1323:30+29se33100 0.0 101122
02:30+27sw44110 0.0 101043
05:30+25w48150 0.0 1011107
08:30+31nw48140 0.0 1013528
11:30+38n2270 0.0 10124692
14:30+39s22616 0.0 10085503
17:30+38nw33692 0.0 10065267
20:30+33w4910100 0.0 1009204
14 april, wed
wed1423:30+29wnw514134 0.0 1010307
02:30+29wnw715161 0.0 1008361
05:30+27nw4101799 0.0 1009219
08:30+31nw61013100 0.0 1012644
11:30+37nw769100 0.0 10112742
14:30+37w649100 0.0 10084527
17:30+34w91014100 0.0 10081101
20:30+29wsw61224100 0.0 1009343
15 april, thu
thu1523:30+28wsw5112117 0.0 1008230
02:30+26w4102543 0.0 1008165
05:30+24nw34315 0.0 100957
08:30+30wnw352249 0.0 1011436
11:30+36ssw471458 0.0 10102572
14:30+38sw661064 0.0 10064637
17:30+37sw7691 0.0 10054207
20:30+31sw48171 0.0 1007133
16 april, fri
fri1623:30
02:30+26w3629100 0.0 100799
05:30+25w51243100 0.0 1008336
08:30+29w46370 0.0 1010573
11:30+37sw57141 0.0 10083103
14:30+40sw6775 0.0 10044888
17:30+38sw881017 0.0 10024504
20:30+21wnw61466100 0.0 1008252
17 april, sat
sat1723:30+25nw51346100 0.0 1009656
02:30+25sw35471 0.0 100880
05:30+24sw35470 0.0 100884
08:30+29wsw57424 0.0 1010577
11:30+37w47165 0.0 10094014
14:30+39wnw88115 0.0 10064356
17:30+36wnw77135 0.0 10063908
20:30+31nw512170 0.0 1009237